• In Russia
  • List of Countries
  • For 7 days
  • Water Temperature
  • Satellite Maps
  • Weather Map
  • Weather Widgets
  • user-avatar
    Login

    Hourly Weather Kostomarovo

    Today, 25 April, Thursday

    Time Temperature Precipitation Wind Pressure Humidity
    00:00 +14°C° 0 mm 2 mps 748 mmHg 56%
    01:00 +13°C° 0 mm 2 mps 748 mmHg 57%
    02:00 +13°C° 0 mm 1 mps 748 mmHg 59%
    03:00 +13°C° 0 mm 1 mps 748 mmHg 61%
    04:00 +12°C° 0 mm 1 mps 748 mmHg 62%
    05:00 +12°C° 0 mm 2 mps 748 mmHg 64%
    06:00 +12°C° 0 mm 2 mps 748 mmHg 65%
    07:00 +14°C° 0 mm 2 mps 748 mmHg 60%
    08:00 +16°C° 0 mm 2 mps 748 mmHg 55%
    09:00 +18°C° 0 mm 2 mps 748 mmHg 49%
    10:00 +19°C° 0 mm 2 mps 748 mmHg 45%
    11:00 +21°C° 0 mm 2 mps 748 mmHg 40%
    12:00 +22°C° 0 mm 3 mps 748 mmHg 35%
    13:00 +24°C° 0 mm 3 mps 748 mmHg 34%
    14:00 +24°C° 0 mm 3 mps 748 mmHg 33%
    15:00 +24°C° 0 mm 3 mps 747 mmHg 32%
    16:00 +24°C° 0 mm 2 mps 747 mmHg 34%
    17:00 +24°C° 0 mm 2 mps 747 mmHg 37%
    18:00 +23°C° 0 mm 2 mps 746 mmHg 39%
    19:00 +21°C° 0 mm 2 mps 746 mmHg 43%
    20:00 +19°C° 0 mm 2 mps 746 mmHg 46%
    21:00 +17°C° 0 mm 2 mps 746 mmHg 50%
    22:00 +17°C° 0 mm 2 mps 746 mmHg 50%
    23:00 +17°C° 0 mm 2 mps 746 mmHg 51%

    Tomorrow, 26 April, Friday

    Time Temperature Precipitation Wind Pressure Humidity
    00:00 +17°C° 0 mm 2 mps 746 mmHg 51%
    01:00 +17°C° 0 mm 2 mps 746 mmHg 53%
    02:00 +16°C° 0 mm 2 mps 746 mmHg 54%
    03:00 +16°C° 0 mm 2 mps 746 mmHg 56%
    04:00 +16°C° 0 mm 1 mps 746 mmHg 58%
    05:00 +15°C° 0 mm 1 mps 746 mmHg 59%
    06:00 +15°C° 0 mm 1 mps 746 mmHg 61%
    07:00 +16°C° 0 mm 1 mps 746 mmHg 57%
    08:00 +18°C° 0 mm 1 mps 746 mmHg 52%
    09:00 +19°C° 0 mm 1 mps 747 mmHg 48%
    10:00 +20°C° 0 mm 1 mps 746 mmHg 44%
    11:00 +21°C° 0 mm 1 mps 746 mmHg 40%
    12:00 +21°C° 0 mm 2 mps 746 mmHg 36%
    13:00 +21°C° 0 mm 2 mps 746 mmHg 39%
    14:00 +21°C° 0 mm 2 mps 746 mmHg 41%
    15:00 +20°C° 0 mm 2 mps 745 mmHg 44%
    16:00 +20°C° 0 mm 2 mps 745 mmHg 46%
    17:00 +20°C° 0 mm 2 mps 745 mmHg 48%
    18:00 +19°C° 0 mm 2 mps 745 mmHg 50%
    19:00 +19°C° 0 mm 1 mps 744 mmHg 54%
    20:00 +18°C° 0 mm 1 mps 744 mmHg 57%
    21:00 +15°C° 0 mm 0 mps 744 mmHg 60%
    22:00 +15°C° 0 mm 1 mps 744 mmHg 62%
    23:00 +15°C° 0 mm 1 mps 744 mmHg 63%

    Day after tomorrow, 27 April, Saturday

    Time Temperature Precipitation Wind Pressure Humidity
    00:00 +14°C° 0 mm 1 mps 744 mmHg 65%
    01:00 +14°C° 0 mm 1 mps 744 mmHg 68%
    02:00 +13°C° 0 mm 1 mps 743 mmHg 71%
    03:00 +13°C° 0 mm 1 mps 743 mmHg 73%
    04:00 +12°C° 0 mm 1 mps 743 mmHg 75%
    05:00 +12°C° 0 mm 1 mps 742 mmHg 76%
    06:00 +12°C° 0 mm 2 mps 742 mmHg 78%
    07:00 +14°C° 0 mm 2 mps 742 mmHg 73%
    08:00 +15°C° 0 mm 2 mps 742 mmHg 69%
    09:00 +16°C° 0 mm 2 mps 742 mmHg 64%
    10:00 +18°C° 0 mm 3 mps 741 mmHg 56%
    11:00 +20°C° 0 mm 3 mps 741 mmHg 47%
    12:00 +21°C° 0 mm 4 mps 741 mmHg 39%
    13:00 +21°C° 0 mm 4 mps 740 mmHg 39%
    14:00 +21°C° 0 mm 4 mps 740 mmHg 38%
    15:00 +21°C° 0 mm 4 mps 739 mmHg 38%
    16:00 +21°C° 0 mm 4 mps 739 mmHg 41%
    17:00 +20°C° 0 mm 4 mps 738 mmHg 43%
    18:00 +20°C° 0 mm 3 mps 738 mmHg 46%
    19:00 +19°C° 0 mm 3 mps 738 mmHg 50%
    20:00 +17°C° 0 mm 3 mps 738 mmHg 54%
    21:00 +16°C° 0 mm 3 mps 738 mmHg 58%
    22:00 +14°C° 0 mm 3 mps 737 mmHg 59%
    23:00 +13°C° 0 mm 3 mps 737 mmHg 61%

    28 April, Sunday

    Time Temperature Precipitation Wind Pressure Humidity
    00:00 +12°C° 0 mm 3 mps 737 mmHg 62%
    01:00 +12°C° 0 mm 3 mps 736 mmHg 67%
    02:00 +12°C° 0 mm 3 mps 736 mmHg 72%
    03:00 +11°C° 0 mm 3 mps 736 mmHg 77%
    04:00 +11°C° 0 mm 3 mps 736 mmHg 79%
    05:00 +11°C° 0 mm 3 mps 735 mmHg 81%
    06:00 +10°C° 0 mm 3 mps 735 mmHg 83%
    07:00 +11°C° 0.7 mm 3 mps 735 mmHg 84%
    08:00 +11°C° 0.7 mm 3 mps 735 mmHg 85%
    09:00 +11°C° 0.7 mm 3 mps 735 mmHg 86%
    10:00 +10°C° 0.9 mm 5 mps 735 mmHg 85%
    11:00 +9°C° 0.9 mm 6 mps 736 mmHg 84%
    12:00 +9°C° 0.9 mm 8 mps 737 mmHg 83%
    13:00 +9°C° 0 mm 7 mps 737 mmHg 79%
    14:00 +9°C° 0 mm 7 mps 738 mmHg 75%
    15:00 +9°C° 0 mm 7 mps 739 mmHg 71%
    16:00 +9°C° 0 mm 7 mps 739 mmHg 67%
    17:00 +9°C° 0 mm 6 mps 740 mmHg 63%
    18:00 +9°C° 0 mm 6 mps 740 mmHg 59%
    19:00 +8°C° 0 mm 6 mps 741 mmHg 58%
    20:00 +7°C° 0 mm 5 mps 742 mmHg 58%
    21:00 +6°C° 0 mm 5 mps 743 mmHg 58%
    22:00 +5°C° 0 mm 5 mps 743 mmHg 60%
    23:00 +3°C° 0 mm 5 mps 743 mmHg 61%

    29 April, Monday

    Time Temperature Precipitation Wind Pressure Humidity
    00:00 +2°C° 0 mm 5 mps 744 mmHg 63%
    01:00 +1°C° 0 mm 4 mps 744 mmHg 64%
    02:00 +1°C° 0 mm 4 mps 745 mmHg 65%
    03:00 0°C° 0 mm 4 mps 745 mmHg 66%
    04:00 0°C° 0 mm 4 mps 745 mmHg 64%
    05:00 -1°C° 0 mm 4 mps 746 mmHg 63%
    06:00 -1°C° 0 mm 4 mps 746 mmHg 62%
    07:00 0°C° 0 mm 4 mps 746 mmHg 55%
    08:00 +1°C° 0 mm 5 mps 747 mmHg 47%
    09:00 +3°C° 0 mm 5 mps 747 mmHg 40%
    10:00 +5°C° 0 mm 5 mps 747 mmHg 39%
    11:00 +5°C° 0 mm 5 mps 747 mmHg 38%
    12:00 +6°C° 0 mm 5 mps 747 mmHg 37%
    13:00 +7°C° 0 mm 5 mps 746 mmHg 37%
    14:00 +7°C° 0 mm 4 mps 746 mmHg 36%
    15:00 +8°C° 0 mm 4 mps 746 mmHg 36%
    16:00 +8°C° 0 mm 4 mps 746 mmHg 38%
    17:00 +7°C° 0 mm 4 mps 746 mmHg 39%
    18:00 +7°C° 0 mm 4 mps 746 mmHg 41%
    19:00 +7°C° 0 mm 3 mps 746 mmHg 45%
    20:00 +5°C° 0 mm 3 mps 746 mmHg 50%
    21:00 +3°C° 0 mm 3 mps 746 mmHg 54%
    22:00 +3°C° 0 mm 3 mps 747 mmHg 56%
    23:00 +2°C° 0 mm 3 mps 747 mmHg 58%

    30 April, Tuesday

    Time Temperature Precipitation Wind Pressure Humidity
    00:00 +2°C° 0 mm 3 mps 747 mmHg 60%
    01:00 +2°C° 0 mm 2 mps 747 mmHg 61%
    02:00 +2°C° 0 mm 2 mps 747 mmHg 62%
    03:00 +1°C° 0 mm 2 mps 747 mmHg 63%
    04:00 +1°C° 0 mm 2 mps 747 mmHg 64%
    05:00 +1°C° 0 mm 2 mps 747 mmHg 64%
    06:00 +1°C° 0 mm 2 mps 748 mmHg 64%
    07:00 +2°C° 0 mm 2 mps 748 mmHg 59%
    08:00 +4°C° 0 mm 2 mps 748 mmHg 53%
    09:00 +5°C° 0 mm 3 mps 748 mmHg 48%
    10:00 +7°C° 0 mm 3 mps 748 mmHg 45%
    11:00 +7°C° 0 mm 2 mps 747 mmHg 41%
    12:00 +8°C° 0 mm 2 mps 747 mmHg 38%
    13:00 +9°C° 0 mm 2 mps 747 mmHg 38%
    14:00 +9°C° 0 mm 2 mps 746 mmHg 38%
    15:00 +9°C° 0 mm 2 mps 746 mmHg 37%
    16:00 +9°C° 0 mm 2 mps 746 mmHg 38%
    17:00 +9°C° 0 mm 2 mps 746 mmHg 39%
    18:00 +10°C° 0 mm 1 mps 745 mmHg 39%
    19:00 +9°C° 0 mm 1 mps 745 mmHg 44%
    20:00 +7°C° 0 mm 1 mps 746 mmHg 48%
    21:00 +6°C° 0 mm 1 mps 746 mmHg 52%
    22:00 +6°C° 0 mm 1 mps 746 mmHg 53%
    23:00 +5°C° 0 mm 1 mps 745 mmHg 55%
    Show more